[[{"header":{"parameterUnit":"m.s-1","parameterCategory":1,"la1":30.2991,"la2":30.254,"lo1":-89.0895,"lo2":-89.0444,"dy":0.0017,"dx":0.0017,"nx":28,"ny":28,"refTime":"2024-08-10T15:00:00:Z","depth":0,"parameterNumber":2,"parameterNumberName":"U-component_of_WINDS"},"data":[0,0,0,0,0,0,0,0,0,0,0,0,0,0,0,0,0,0,0,0,0,0,0,0,0,0,0,0,0,0,0,0,0,0,0,0,0,0,0,0,0,0,0,0,0,0,0,0,0,0,0,0,0,0,0,0,0,0,0.1438,0.1438,0,0.1452,0.1452,0.1452,0.1495,0.1496,0.1497,0.1498,0.151,0.151,0.1509,0,0,0,0,0,0,0,0,0,0,0,0,0,0.1446,0.1445,0.1437,0.1438,0.1438,0.1452,0.1452,0.1452,0.1495,0.1496,0.1497,0.1498,0.151,0.151,0.1509,0,0,0,0,0,0,0,0,0,0,0,0,0,0.1449,0.1445,0.1437,0.1461,0.1463,0.1452,0.1452,0.1452,0.1495,0.1496,0.1497,0.1499,0.1511,0.151,0.1509,0.1475,0,0,0.1506,0.1506,0,0,0,0,0,0,0,0,0.1449,0.1449,0.1457,0.1459,0.1462,0.1473,0.1459,0.146,0.1494,0.1483,0.1498,0.1499,0.1497,0.1497,0.1496,0.1476,0.1476,0.1506,0.1506,0.1505,0.1505,0,0,0,0,0,0,0,0.1449,0.1448,0.1443,0.1457,0.146,0.147,0.1472,0.146,0.1481,0.1484,0.1487,0.1488,0.1498,0.1497,0.1497,0.1477,0.1506,0.1506,0.1505,0.1505,0.1428,0.1427,0,0,0,0,0,0,0.1445,0.1448,0.1443,0.1444,0.1459,0.1469,0.1471,0.1468,0.1482,0.1485,0.1487,0.149,0.1498,0.1498,0.1498,0.1458,0.1505,0.1505,0.1504,0.143,0.1428,0.1426,0,0,0,0,0,0,0.1445,0.1444,0.1442,0.1447,0.1447,0.1467,0.1463,0.1468,0.1467,0.1484,0.1488,0.1482,0.1499,0.1499,0.148,0.1459,0.1504,0.1504,0.1432,0.1429,0.1427,0.1379,0,0,0,0,0,0,0.1445,0.1444,0.1432,0.1446,0.1447,0.1425,0.1462,0.1467,0.1465,0.147,0.148,0.1484,0.15,0.1481,0.148,0.1459,0.1503,0.1433,0.143,0.1428,0.1382,0.1375,0.1369,0,0,0,0,0,0.1445,0.1417,0.1431,0.143,0.1432,0.1424,0.1424,0.1444,0.1463,0.1451,0.1462,0.1483,0.1462,0.1479,0.1478,0.1456,0.1435,0.1431,0.1428,0.1385,0.1376,0.1369,0,0,0,0,0,0,0.1399,0.142,0.1435,0.1411,0.1415,0.1431,0.1415,0.1434,0.1433,0.1437,0.1461,0.1463,0.1441,0.1447,0.1466,0.1424,0.1452,0.1448,0.142,0.1412,0.1405,0.1403,0.1502,0,0,0,0,0,0.1386,0.1379,0.1397,0.1374,0.1375,0.1395,0.1392,0.1407,0.1413,0.1415,0.1425,0.1428,0.1422,0.1418,0.1414,0.1384,0.1386,0.1369,0.1362,0.1356,0.1352,0.1335,0.1327,0.1415,0.1415,0.1415,0,0,0.1359,0.137,0.1363,0.1365,0.137,0.136,0.1396,0.1385,0.1378,0.1413,0.1395,0.1403,0.1409,0.1385,0.1374,0.1389,0.1329,0.1352,0.1347,0.1346,0.1331,0.1323,0.1315,0.1413,0.1413,0.1413,0,0,0.1305,0.1312,0.1293,0.1298,0.1306,0.132,0.1315,0.1328,0.1334,0.1318,0.1344,0.1336,0.1326,0.1329,0.1329,0.1276,0.1295,0.1274,0.1238,0.1222,0.1215,0.1209,0.1188,0.1181,0.127,0.127,0.127,0,0.1269,0.1257,0.1281,0.1268,0.1267,0.13,0.128,0.1284,0.1289,0.1288,0.1305,0.1292,0.1299,0.1275,0.1262,0.1262,0.1256,0.1272,0.1214,0.1208,0.1203,0.1184,0.1176,0.1267,0.1268,0.1268,0.1268,0,0.1213,0.1204,0.1187,0.1192,0.1191,0.1174,0.1195,0.119,0.1206,0.1218,0.12,0.1209,0.1207,0.1203,0.1218,0.1181,0.1189,0.121,0.1238,0.1191,0.1173,0.1166,0.1263,0.1264,0.1265,0.1266,0,0,0.1127,0.1147,0.114,0.1142,0.1154,0.1147,0.1132,0.1131,0.1125,0.1129,0.1116,0.1107,0.1126,0.1126,0.1142,0.1128,0.1084,0.115,0.1151,0.1136,0.1041,0.1024,0.1015,0.1098,0.1096,0.1095,0.104,0,0.1074,0.1049,0.1071,0.1042,0.1034,0.1065,0.1052,0.1057,0.1068,0.1062,0.1074,0.1066,0.1093,0.1093,0.1081,0.1092,0.1065,0.1096,0.1084,0.1083,0.1079,0.1006,0.0988,0.0935,0.1034,0.1032,0.1032,0,0.1008,0.1008,0.0979,0.0992,0.0989,0.0977,0.0977,0.0971,0.0978,0.0987,0.0987,0.1007,0.0993,0.1022,0.1002,0.1023,0.102,0.1025,0.1023,0.102,0.1053,0.0999,0.0919,0.091,0.1021,0.1022,0.1023,0,0.0945,0.0939,0.0921,0.0922,0.0938,0.0928,0.0934,0.0942,0.094,0.094,0.0939,0.0937,0.0935,0.0934,0.0952,0.0973,0.0929,0.0961,0.0934,0.0933,0.0921,0.0921,0.0837,0.0923,0.0923,0.0923,0.0924,0,0.0882,0.0862,0.0893,0.0881,0.0859,0.0885,0.0863,0.0872,0.0879,0.0869,0.0897,0.0887,0.0913,0.0906,0.0921,0.09,0.09,0.0906,0.0909,0.0902,0.0901,0.0898,0.0901,0.0921,0.0922,0.0922,0.0923,0,0.0808,0.0828,0.0809,0.0826,0.083,0.0813,0.0827,0.0816,0.083,0.0816,0.0815,0.0835,0.0827,0.0847,0.0842,0.0852,0.0823,0.0834,0.082,0.0822,0.0794,0.0795,0.0703,0.0691,0.0787,0.0786,0.0785,0,0.0765,0.075,0.0766,0.0761,0.0766,0.0758,0.0756,0.0781,0.0778,0.0784,0.0772,0.0768,0.0765,0.0751,0.0765,0.0761,0.0771,0.0739,0.077,0.0762,0.0767,0.0767,0.0765,0.0731,0.073,0.0729,0.0728,0,0.0685,0.0696,0.0692,0.0692,0.0689,0.069,0.0692,0.0687,0.0714,0.0708,0.0701,0.0699,0.0695,0.0689,0.0688,0.0694,0.0714,0.0719,0.0712,0.0702,0.0694,0.0696,0.08,0.072,0.0721,0.0721,0.0722,0.0722,0.0624,0.0612,0.0621,0.0616,0.0621,0.0622,0.0613,0.0625,0.062,0.0619,0.0634,0.0624,0.0631,0.0632,0.0636,0.0627,0.0642,0.0633,0.063,0.0626,0.062,0.0698,0.0628,0.0628,0.0628,0.0628,0.0629,0,0.0544,0.0552,0.0547,0.055,0.0545,0.0568,0.0572,0.0566,0.0557,0.0562,0.0559,0.055,0.0545,0.0559,0.0555,0.0546,0.0555,0.0544,0.0543,0.0544,0.0609,0.0614,0.0536,0.0536,0.0536,0.0536,0.0536,0.0536,0.0502,0.0482,0.0494,0.0477,0.0485,0.0475,0.0476,0.0477,0.0481,0.0471,0.0467,0.0477,0.0485,0.0482,0.0478,0.0482,0.0478,0.0463,0.047,0.053,0.0539,0.0548,0.0552,0.0463,0.0463,0.0405,0.0405,0.0404]},{"header":{"parameterUnit":"m.s-1","parameterCategory":1,"la1":30.2991,"la2":30.254,"lo1":-89.0895,"lo2":-89.0444,"dy":0.0017,"dx":0.0017,"nx":28,"ny":28,"refTime":"2024-08-10T15:00:00:Z","depth":0,"parameterNumber":3,"parameterNumberName":"V-component_of_WINDS"},"data":[0,0,0,0,0,0,0,0,0,0,0,0,0,0,0,0,0,0,0,0,0,0,0,0,0,0,0,0,0,0,0,0,0,0,0,0,0,0,0,0,0,0,0,0,0,0,0,0,0,0,0,0,0,0,0,0,0,0,-2.8354,-2.8354,0,-2.8381,-2.8381,-2.8381,-2.8359,-2.8359,-2.8358,-2.8357,-2.8381,-2.8383,-2.8384,0,0,0,0,0,0,0,0,0,0,0,0,0,-2.828,-2.8282,-2.8354,-2.8354,-2.8354,-2.8381,-2.8381,-2.8381,-2.836,-2.8359,-2.8357,-2.8356,-2.8381,-2.8383,-2.8384,0,0,0,0,0,0,0,0,0,0,0,0,0,-2.831,-2.8282,-2.8354,-2.8347,-2.8346,-2.838,-2.8381,-2.8381,-2.836,-2.8358,-2.8357,-2.8356,-2.838,-2.8382,-2.8385,-2.8426,0,0,-2.8392,-2.8393,0,0,0,0,0,0,0,0,-2.8309,-2.8313,-2.8347,-2.8347,-2.8347,-2.8365,-2.8364,-2.8396,-2.836,-2.8355,-2.8357,-2.8355,-2.8377,-2.8379,-2.8387,-2.8427,-2.8428,-2.8392,-2.8393,-2.8394,-2.8395,0,0,0,0,0,0,0,-2.8307,-2.8312,-2.8364,-2.8348,-2.8348,-2.8341,-2.8344,-2.837,-2.8373,-2.8355,-2.8354,-2.8357,-2.8377,-2.8385,-2.8388,-2.8428,-2.8392,-2.8394,-2.8395,-2.8396,-2.8502,-2.8503,0,0,0,0,0,0,-2.8306,-2.831,-2.8363,-2.8365,-2.8324,-2.8344,-2.8347,-2.8361,-2.8373,-2.8373,-2.8358,-2.8356,-2.8382,-2.8385,-2.8389,-2.8436,-2.8394,-2.8396,-2.8398,-2.8501,-2.8502,-2.8504,0,0,0,0,0,0,-2.8304,-2.8311,-2.8362,-2.8337,-2.8343,-2.8347,-2.8362,-2.8362,-2.8371,-2.8375,-2.8375,-2.8367,-2.8381,-2.8385,-2.8417,-2.8437,-2.8397,-2.8399,-2.8499,-2.8501,-2.8503,-2.8533,0,0,0,0,0,0,-2.8302,-2.831,-2.8327,-2.8338,-2.8345,-2.8391,-2.8364,-2.8364,-2.8375,-2.8372,-2.8383,-2.8384,-2.838,-2.8413,-2.8419,-2.8439,-2.8401,-2.8497,-2.85,-2.8502,-2.853,-2.8536,-2.8541,0,0,0,0,0,-2.83,-2.8334,-2.8328,-2.8334,-2.8366,-2.8392,-2.8396,-2.8392,-2.8377,-2.8393,-2.8395,-2.8383,-2.8434,-2.8417,-2.8423,-2.8444,-2.8496,-2.8499,-2.8502,-2.8528,-2.8535,-2.8541,0,0,0,0,0,0,-2.8324,-2.8335,-2.8328,-2.8367,-2.8379,-2.8389,-2.8408,-2.84,-2.8416,-2.8412,-2.8406,-2.8409,-2.8442,-2.8446,-2.8427,-2.8484,-2.8462,-2.8467,-2.848,-2.8486,-2.8492,-2.8489,-2.8403,0,0,0,0,0,-2.8334,-2.8356,-2.8364,-2.8397,-2.8404,-2.8405,-2.8417,-2.8413,-2.8424,-2.8429,-2.8434,-2.8445,-2.8463,-2.8475,-2.8493,-2.8531,-2.8532,-2.8549,-2.8554,-2.8559,-2.8562,-2.8582,-2.8589,-2.8515,-2.8515,-2.8515,0,0,-2.8354,-2.8363,-2.8377,-2.8402,-2.8411,-2.8432,-2.8409,-2.8433,-2.8449,-2.8432,-2.8462,-2.8466,-2.8478,-2.8513,-2.8529,-2.8518,-2.8583,-2.8563,-2.8566,-2.8567,-2.8586,-2.8593,-2.8599,-2.8517,-2.8517,-2.8516,0,0,-2.8402,-2.8412,-2.844,-2.845,-2.8463,-2.8464,-2.8471,-2.8482,-2.8484,-2.8515,-2.8502,-2.852,-2.8552,-2.8561,-2.8569,-2.8621,-2.8609,-2.8627,-2.8654,-2.8673,-2.8679,-2.8684,-2.87,-2.8707,-2.863,-2.863,-2.8631,0,-2.8425,-2.8458,-2.8456,-2.848,-2.8491,-2.8479,-2.8506,-2.8515,-2.8534,-2.8541,-2.8529,-2.8568,-2.8575,-2.8611,-2.8624,-2.8632,-2.8638,-2.8624,-2.8678,-2.8683,-2.8688,-2.8704,-2.871,-2.8632,-2.8632,-2.8632,-2.8632,0,-2.8486,-2.8509,-2.853,-2.8549,-2.8562,-2.8588,-2.8588,-2.8602,-2.8597,-2.8599,-2.8629,-2.8637,-2.8655,-2.8664,-2.8659,-2.8699,-2.8692,-2.8679,-2.8657,-2.8697,-2.8712,-2.8718,-2.8635,-2.8634,-2.8634,-2.8633,0,0,-2.8548,-2.8566,-2.8573,-2.8581,-2.8596,-2.8613,-2.8638,-2.8657,-2.8668,-2.8681,-2.8701,-2.8729,-2.8717,-2.8727,-2.8723,-2.874,-2.8778,-2.8725,-2.8725,-2.8733,-2.8821,-2.8829,-2.8836,-2.8772,-2.8773,-2.8774,-2.882,0,-2.8596,-2.8641,-2.8639,-2.868,-2.87,-2.8689,-2.871,-2.8721,-2.8723,-2.874,-2.8743,-2.8762,-2.8746,-2.8751,-2.8768,-2.877,-2.8796,-2.8767,-2.8789,-2.8789,-2.8784,-2.8844,-2.8853,-2.8896,-2.8825,-2.8826,-2.8827,0,-2.8657,-2.8673,-2.8716,-2.8727,-2.8736,-2.8755,-2.8772,-2.8789,-2.88,-2.88,-2.8811,-2.8805,-2.8829,-2.8808,-2.884,-2.8821,-2.883,-2.8832,-2.8834,-2.8834,-2.8809,-2.8845,-2.8909,-2.8915,-2.8837,-2.8836,-2.8835,0,-2.8696,-2.8729,-2.8759,-2.8766,-2.878,-2.8794,-2.88,-2.881,-2.8821,-2.8836,-2.8842,-2.8859,-2.8868,-2.8881,-2.8878,-2.8863,-2.8911,-2.8889,-2.891,-2.891,-2.892,-2.8919,-2.8985,-2.8928,-2.8928,-2.8928,-2.8928,0,-2.8748,-2.8775,-2.8776,-2.8795,-2.8824,-2.8821,-2.885,-2.8854,-2.8864,-2.8881,-2.8873,-2.889,-2.8886,-2.8903,-2.8901,-2.8928,-2.8932,-2.8932,-2.8931,-2.8932,-2.8932,-2.8936,-2.8932,-2.893,-2.8929,-2.8929,-2.8929,0,-2.8796,-2.8799,-2.883,-2.8841,-2.8844,-2.8865,-2.8874,-2.889,-2.8893,-2.8915,-2.8921,-2.8923,-2.8942,-2.8942,-2.8963,-2.8962,-2.8994,-2.899,-2.899,-2.8989,-2.9009,-2.9007,-2.9079,-2.9088,-2.9027,-2.9028,-2.9029,0,-2.8829,-2.8849,-2.8862,-2.8874,-2.8881,-2.8901,-2.8912,-2.891,-2.8922,-2.8937,-2.8951,-2.897,-2.8984,-2.9015,-2.9018,-2.9034,-2.903,-2.9054,-2.9032,-2.9032,-2.9028,-2.9026,-2.9028,-2.9058,-2.9059,-2.9059,-2.906,0,-2.8885,-2.8885,-2.8903,-2.892,-2.8934,-2.8948,-2.8961,-2.8971,-2.897,-2.8984,-2.9004,-2.9015,-2.9037,-2.9055,-2.907,-2.9076,-2.9067,-2.9067,-2.9072,-2.9072,-2.9071,-2.907,-2.9,-2.9065,-2.9064,-2.9064,-2.9064,-2.9063,-2.8925,-2.8942,-2.8954,-2.8973,-2.8983,-2.8995,-2.9011,-2.9015,-2.9032,-2.905,-2.9048,-2.907,-2.908,-2.91,-2.9107,-2.9123,-2.9114,-2.9122,-2.9124,-2.9126,-2.9127,-2.907,-2.9126,-2.9126,-2.9125,-2.9125,-2.9125,0,-2.8979,-2.8987,-2.9005,-2.9023,-2.9038,-2.903,-2.9043,-2.9056,-2.9075,-2.9086,-2.9101,-2.9123,-2.914,-2.9145,-2.9162,-2.9174,-2.917,-2.9178,-2.9176,-2.9177,-2.9135,-2.9128,-2.918,-2.918,-2.918,-2.918,-2.918,-2.918,-2.9009,-2.9037,-2.9039,-2.9071,-2.9078,-2.91,-2.9108,-2.9118,-2.9127,-2.9152,-2.9167,-2.9171,-2.9179,-2.9196,-2.9211,-2.9212,-2.9217,-2.9226,-2.9225,-2.9186,-2.918,-2.9175,-2.9168,-2.9228,-2.9228,-2.9266,-2.9266,-2.9266]}]]